Terminal Aerodrome Forecast
Issued by NWS

Home | Current Version | Previous Version | Text Only | Print | Product List | Glossary On
Versions: 1 2 3 4 5 6 7 8 9 10 11 12 13 14 15 16 17 18 19 20 21 22 23 24 25 26 27
000
FTUS45 KTWC 242300
TAFOLS
TAF
KOLS 242328Z 2500/2524 08004KT P6SM BKN250
     FM250200 15007KT P6SM BKN250
     FM251500 16012G20KT P6SM SCT100 BKN200
     FM251900 24024G32KT P6SM BKN060 BKN090=

USA.gov is the U.S. government's official web portal to all federal, state and local government web resources and services.